Weather History for Harrisburg, IL

Change the Weather History Date:

Wednesday, February 13, 2013

  Actual Average (KMWA) Record (KMWA)
Temperature  
Mean Temperature 40 °F -  
Max Temperature 48 °F 41 °F 65 °F (1974)
Min Temperature 33 °F 22 °F -1 °F (1981)
Degree Days  
Heating Degree Days 24    
Moisture  
Dew Point 33 °F    
Average Humidity 80    
Maximum Humidity 100    
Minimum Humidity 50    
Precipitation  
Precipitation 0.19 in - - ()
Sea Level Pressure  
Sea Level Pressure 29.89 in    
Wind  
Wind Speed 7 mph (West)    
Max Wind Speed 12 mph    
Max Gust Speed -    
Visibility 8 miles    
Events Rain , Snow    
Averages and records for this station are not official NWS values.
T = Trace of Precipitation, MM = Missing Value Source: NWS Daily Summary

Daily Weather History Graph

Daily Weather History Graph

Search for Another Location

Airport:

Trip Planner

Search our weather history database for the weather conditions in past years. The results will help you decide how hot, cold, wet, or windy it might be!

Date:

Astronomy

Feb. 13, 2013 Rise Set
Actual Time 6:45 AM CST 5:31 PM CST
Civil Twilight 6:18 AM CST 5:58 PM CST
Nautical Twilight 5:48 AM CST 6:29 PM CST
Astronomical Twilight 5:17 AM CST 6:59 PM CST
Moon 8:20 AM CST (2/13) 9:28 PM CST (2/13)
Length of Visible Light 11h 39m
Length of Day
10h 45m
Waxing Crescent, 14% of the Moon is Illuminated
Feb 13
Waxing Crescent
Feb 17
First Quarter
Feb 25
Full
Mar 4
Last Quarter
Mar 11
New

Hourly Weather History & Observations

Time (CST) Temp. Windchill Dew Point Humidity Pressure Visibility Wind Dir Wind Speed Gust Speed Precip Events Conditions
12:15 AM 41.0 °F 35.8 °F 32.0 °F 70% 29.89 in 10.0 mi North 8.1 mph - N/A   Overcast
12:35 AM 41.0 °F 35.8 °F 32.0 °F 70% 29.88 in 10.0 mi North 8.1 mph - N/A   Overcast
12:55 AM 41.0 °F 36.4 °F 32.0 °F 70% 29.89 in 10.0 mi North 6.9 mph - N/A   Overcast
1:15 AM 39.2 °F 35.9 °F 32.0 °F 75% 29.89 in 10.0 mi North 4.6 mph - N/A   Overcast
1:35 AM 39.2 °F 35.9 °F 32.0 °F 75% 29.88 in 10.0 mi North 4.6 mph - N/A   Overcast
1:55 AM 39.2 °F 35.0 °F 32.0 °F 75% 29.88 in 10.0 mi North 5.8 mph - N/A   Overcast
2:15 AM 37.4 °F 32.1 °F 32.0 °F 81% 29.88 in 10.0 mi North 6.9 mph - N/A   Overcast
2:35 AM 37.4 °F 34.9 °F 32.0 °F 81% 29.87 in 10.0 mi NNE 3.5 mph - N/A   Overcast
2:55 AM 37.4 °F 32.8 °F 32.0 °F 81% 29.87 in 10.0 mi NNW 5.8 mph - N/A Rain Light Rain
3:15 AM 37.4 °F 32.8 °F 32.0 °F 81% 29.86 in 10.0 mi NNW 5.8 mph - N/A   Light Drizzle
3:35 AM 37.4 °F 34.9 °F 32.0 °F 81% 29.86 in 10.0 mi North 3.5 mph - N/A   Drizzle
3:55 AM 37.4 °F 32.1 °F 32.0 °F 81% 29.86 in 10.0 mi North 6.9 mph - N/A   Light Drizzle
4:15 AM 37.4 °F 33.8 °F 32.0 °F 81% 29.87 in 7.0 mi North 4.6 mph - N/A Rain Rain
4:35 AM 37.4 °F 32.1 °F 32.0 °F 81% 29.86 in 7.0 mi North 6.9 mph - 0.02 in Rain Rain
4:55 AM 35.6 °F 29.9 °F 32.0 °F 87% 29.87 in 5.0 mi NNW 6.9 mph - 0.04 in Rain Rain
5:15 AM 35.6 °F 28.6 °F 33.8 °F 93% 29.87 in 5.0 mi North 9.2 mph - 0.02 in Rain Rain
5:35 AM 35.6 °F 29.2 °F 32.0 °F 87% 29.86 in 5.0 mi North 8.1 mph - 0.05 in   Overcast
5:55 AM 35.6 °F 31.7 °F 33.8 °F 93% 29.86 in 5.0 mi North 4.6 mph - 0.07 in Rain Rain
6:15 AM 35.6 °F 29.9 °F 33.8 °F 93% 29.86 in 5.0 mi North 6.9 mph - 0.02 in Rain Light Rain
6:35 AM 35.6 °F 29.2 °F 33.8 °F 93% 29.88 in 7.0 mi North 8.1 mph - 0.03 in Rain Light Rain
6:55 AM 33.8 °F 27.7 °F 32.0 °F 93% 29.89 in 3.0 mi North 6.9 mph - 0.04 in   Overcast
7:15 AM 33.8 °F 28.6 °F 32.0 °F 93% 29.89 in 3.0 mi North 5.8 mph - 0.01 in Snow Light Snow
7:35 AM 33.8 °F 30.8 °F 32.0 °F 93% 29.89 in 2.0 mi North 3.5 mph - 0.02 in Snow Light Snow
7:55 AM 33.8 °F - 32.0 °F 93% 29.90 in 1.5 mi Calm Calm - 0.02 in Snow Light Snow
8:15 AM 33.8 °F 29.6 °F 32.0 °F 93% 29.90 in 1.5 mi NNW 4.6 mph - 0.01 in Snow Light Snow
8:35 AM 33.8 °F 30.8 °F 33.8 °F 100% 29.91 in 1.8 mi NNW 3.5 mph - 0.02 in Snow Light Snow
8:55 AM 33.8 °F 29.6 °F 33.8 °F 100% 29.91 in 2.0 mi NW 4.6 mph - 0.02 in Rain Light Rain
9:15 AM 33.8 °F 28.6 °F 33.8 °F 100% 29.92 in 2.5 mi WNW 5.8 mph - N/A Rain Light Rain
9:35 AM 35.6 °F 29.9 °F 35.6 °F 100% 29.92 in 3.0 mi WNW 6.9 mph - N/A   Overcast
9:55 AM 37.4 °F 31.4 °F 35.6 °F 93% 29.92 in 4.0 mi West 8.1 mph - N/A   Overcast
10:15 AM 37.4 °F 31.4 °F 37.4 °F 100% 29.92 in 5.0 mi West 8.1 mph - N/A   Overcast
10:35 AM 37.4 °F 32.1 °F 35.6 °F 93% 29.92 in 7.0 mi WNW 6.9 mph - N/A   Scattered Clouds
10:55 AM 41.0 °F 36.4 °F 37.4 °F 87% 29.92 in 7.0 mi West 6.9 mph - N/A   Mostly Cloudy
11:15 AM 41.0 °F 38.0 °F 35.6 °F 81% 29.92 in 10.0 mi West 4.6 mph - N/A   Overcast
11:35 AM 42.8 °F 38.6 °F 35.6 °F 76% 29.91 in 10.0 mi West 6.9 mph - N/A   Mostly Cloudy
11:55 AM 42.8 °F 40.1 °F 33.8 °F 70% 29.90 in 10.0 mi West 4.6 mph - N/A   Mostly Cloudy
12:15 PM 42.8 °F 38.6 °F 33.8 °F 70% 29.89 in 10.0 mi West 6.9 mph - N/A   Mostly Cloudy
12:35 PM 42.8 °F 38.6 °F 33.8 °F 70% 29.88 in 10.0 mi West 6.9 mph - N/A   Mostly Cloudy
12:55 PM 44.6 °F 41.4 °F 33.8 °F 66% 29.88 in 10.0 mi West 5.8 mph - N/A   Overcast
1:15 PM 44.6 °F 40.2 °F 33.8 °F 66% 29.88 in 10.0 mi WSW 8.1 mph - N/A   Mostly Cloudy
1:35 PM 46.4 °F 42.9 °F 33.8 °F 62% 29.88 in 10.0 mi SW 6.9 mph - N/A   Scattered Clouds
1:55 PM 46.4 °F 41.1 °F 32.0 °F 57% 29.87 in 10.0 mi WSW 11.5 mph - N/A   Scattered Clouds
2:15 PM 46.4 °F 41.5 °F 32.0 °F 57% 29.87 in 10.0 mi WSW 10.4 mph - N/A   Clear
2:35 PM 46.4 °F 42.4 °F 32.0 °F 57% 29.86 in 10.0 mi WSW 8.1 mph - N/A   Clear
2:55 PM 48.2 °F - 32.0 °F 54% 29.86 in 10.0 mi SW 8.1 mph - N/A   Clear
3:15 PM 48.2 °F - 32.0 °F 54% 29.86 in 10.0 mi WSW 11.5 mph - N/A   Clear
3:35 PM 48.2 °F - 30.2 °F 50% 29.86 in 10.0 mi WSW 11.5 mph - N/A   Clear
3:55 PM 48.2 °F - 30.2 °F 50% 29.86 in 10.0 mi WSW 10.4 mph - N/A   Clear
4:15 PM 48.2 °F - 32.0 °F 54% 29.86 in 10.0 mi WSW 11.5 mph - N/A   Clear
4:35 PM 46.4 °F 41.9 °F 32.0 °F 57% 29.86 in 10.0 mi SW 9.2 mph - N/A   Clear
4:55 PM 46.4 °F 42.4 °F 32.0 °F 57% 29.86 in 10.0 mi SSW 8.1 mph - N/A   Clear
5:15 PM 44.6 °F 39.7 °F 33.8 °F 66% 29.87 in 10.0 mi SSW 9.2 mph - N/A   Clear
5:35 PM 42.8 °F 38.0 °F 33.8 °F 70% 29.87 in 10.0 mi SSW 8.1 mph - N/A   Clear
5:55 PM 42.8 °F 38.0 °F 33.8 °F 70% 29.88 in 10.0 mi SSW 8.1 mph - N/A   Clear
6:15 PM 42.8 °F 37.5 °F 33.8 °F 70% 29.88 in 10.0 mi SSW 9.2 mph - N/A   Clear
6:35 PM 41.0 °F 35.8 °F 33.8 °F 76% 29.89 in 10.0 mi SSW 8.1 mph - N/A   Clear
6:55 PM 41.0 °F 35.8 °F 33.8 °F 76% 29.90 in 10.0 mi South 8.1 mph - N/A   Clear
7:15 PM 41.0 °F 36.4 °F 33.8 °F 76% 29.90 in 10.0 mi SSW 6.9 mph - N/A   Clear
7:35 PM 39.2 °F 34.2 °F 33.8 °F 81% 29.90 in 10.0 mi South 6.9 mph - N/A   Clear
7:55 PM 39.2 °F 34.2 °F 33.8 °F 81% 29.90 in 10.0 mi South 6.9 mph - N/A   Clear
8:15 PM 39.2 °F 35.9 °F 33.8 °F 81% 29.90 in 10.0 mi SSW 4.6 mph - N/A   Clear
8:35 PM 37.4 °F 34.9 °F 33.8 °F 87% 29.91 in 10.0 mi SSW 3.5 mph - N/A   Clear
8:55 PM 37.4 °F 33.8 °F 35.6 °F 93% 29.91 in 10.0 mi SSW 4.6 mph - N/A   Clear
9:15 PM 37.4 °F 34.9 °F 33.8 °F 87% 29.91 in 10.0 mi SSW 3.5 mph - N/A   Clear
9:35 PM 37.4 °F 32.8 °F 35.6 °F 93% 29.91 in 10.0 mi SSW 5.8 mph - N/A   Clear
9:55 PM 37.4 °F 31.4 °F 35.6 °F 93% 29.91 in 10.0 mi SSW 8.1 mph - N/A   Clear
10:15 PM 37.4 °F 30.8 °F 35.6 °F 93% 29.92 in 10.0 mi SSW 9.2 mph - N/A   Clear
10:35 PM 37.4 °F 30.8 °F 35.6 °F 93% 29.92 in 10.0 mi SW 9.2 mph - N/A   Clear
10:55 PM 37.4 °F 30.8 °F 35.6 °F 93% 29.92 in 10.0 mi SW 9.2 mph - N/A   Clear
11:15 PM 37.4 °F 30.8 °F 35.6 °F 93% 29.92 in 10.0 mi SW 9.2 mph - N/A   Clear
11:35 PM 37.4 °F 31.4 °F 35.6 °F 93% 29.92 in 10.0 mi SW 8.1 mph - N/A   Clear
11:55 PM 37.4 °F 31.4 °F 35.6 °F 93% 29.92 in 10.0 mi SSW 8.1 mph - N/A   Clear